<?xml version="1.0" encoding="UTF-8" standalone="no" ?><gpx xmlns="http://www.topografix.com/GPX/1/1" xmlns:gpxx="http://www.garmin.com/xmlschemas/GpxExtensions/v3" xmlns:wptx1="http://www.garmin.com/xmlschemas/WaypointExtension/v1" xmlns:gpxtpx="http://www.garmin.com/xmlschemas/TrackPointExtension/v1" creator="GuideVTT.com" version="1.1" xmlns:xsi="http://www.w3.org/2001/XMLSchema-instance" xsi:schemaLocation="http://www.topografix.com/GPX/1/1 http://www.topografix.com/GPX/1/1/gpx.xsd http://www.garmin.com/xmlschemas/GpxExtensions/v3 http://www8.garmin.com/xmlschemas/GpxExtensionsv3.xsd http://www.garmin.com/xmlschemas/WaypointExtension/v1 http://www8.garmin.com/xmlschemas/WaypointExtensionv1.xsd http://www.garmin.com/xmlschemas/TrackPointExtension/v1 http://www.garmin.com/xmlschemas/TrackPointExtensionv1.xsd">
<metadata><link href="http://www.garmin.com"><text>Garmin International</text></link><time>2013-06-22T15:13:50Z</time></metadata>
<trk><name>marche4.gpx</name><extensions><gpxx:TrackExtension><gpxx:DisplayColor>Cyan</gpxx:DisplayColor></gpxx:TrackExtension></extensions><trkseg>
<trkpt lat="31.04596250" lon="-6.10406566"><ele>10</ele><time>1989-12-31T00:00:00Z</time></trkpt>
<trkpt lat="31.12226564" lon="-6.08965818"><ele>10</ele><time>1989-12-31T00:00:00Z</time></trkpt>
<trkpt lat="31.02995147" lon="-6.06562953"><ele>10</ele><time>1989-12-31T00:00:00Z</time></trkpt>
<trkpt lat="31.21511852" lon="-5.85317317"><ele>13</ele><time>1989-12-31T00:00:00Z</time></trkpt>
<trkpt lat="31.04107493" lon="-5.89785023"><ele>11</ele><time>1989-12-31T00:00:00Z</time></trkpt>
<trkpt lat="31.12100484" lon="-5.83782616"><ele>12</ele><time>1989-12-31T00:00:00Z</time></trkpt>
<trkpt lat="31.14763850" lon="-5.83634290"><ele>13</ele><time>1989-12-31T00:00:00Z</time></trkpt>
<trkpt lat="31.03246420" lon="-6.10884754"><ele>10</ele><time>1989-12-31T00:00:00Z</time></trkpt>
<trkpt lat="31.01528691" lon="-5.95961932"><ele>11</ele><time>1989-12-31T00:00:00Z</time></trkpt>
<trkpt lat="" lon=""><ele>0</ele><time>Year-Month#-Day#THour:Min:SecZ</time></trkpt>
<trkpt lat="31.04091181" lon="-5.89791954"><ele>1297.917236</ele><time>1989-12-31T00:00:00Z</time></trkpt>
<trkpt lat="31.04091424" lon="-5.89789172"><ele>1300.801025</ele><time>1989-12-31T00:00:00Z</time></trkpt>
<trkpt lat="31.04091458" lon="-5.89789364"><ele>1294.072021</ele><time>1989-12-31T00:00:00Z</time></trkpt>
<trkpt lat="31.04090637" lon="-5.89789348"><ele>1300.801025</ele><time>1989-12-31T00:00:00Z</time></trkpt>
<trkpt lat="31.04119663" lon="-5.89729032"><ele>1279.6521</ele><time>1989-12-31T00:00:00Z</time></trkpt>
<trkpt lat="31.04102472" lon="-5.89738939"><ele>1279.6521</ele><time>1989-12-31T00:00:00Z</time></trkpt>
<trkpt lat="31.04102095" lon="-5.89720088"><ele>1278.690918</ele><time>1989-12-31T00:00:00Z</time></trkpt>
<trkpt lat="31.04105984" lon="-5.89611324"><ele>1295.994629</ele><time>1989-12-31T00:00:00Z</time></trkpt>
<trkpt lat="31.04125489" lon="-5.89541537"><ele>1298.397705</ele><time>1989-12-31T00:00:00Z</time></trkpt>
<trkpt lat="31.04137634" lon="-5.89522594"><ele>1299.359131</ele><time>1989-12-31T00:00:00Z</time></trkpt>
<trkpt lat="31.04154071" lon="-5.89479636"><ele>1301.281738</ele><time>1989-12-31T00:00:00Z</time></trkpt>
<trkpt lat="31.04177046" lon="-5.89464390"><ele>1302.723633</ele><time>1989-12-31T00:00:00Z</time></trkpt>
<trkpt lat="31.04202292" lon="-5.89458891"><ele>1303.685059</ele><time>1989-12-31T00:00:00Z</time></trkpt>
<trkpt lat="31.04230740" lon="-5.89439956"><ele>1304.165771</ele><time>1989-12-31T00:00:00Z</time></trkpt>
<trkpt lat="31.04245551" lon="-5.89424509"><ele>1307.049561</ele><time>1989-12-31T00:00:00Z</time></trkpt>
<trkpt lat="31.04255391" lon="-5.89421181"><ele>1306.088135</ele><time>1989-12-31T00:00:00Z</time></trkpt>
<trkpt lat="31.04256808" lon="-5.89408985"><ele>1303.685059</ele><time>1989-12-31T00:00:00Z</time></trkpt>
<trkpt lat="31.04271392" lon="-5.89387528"><ele>1299.839844</ele><time>1989-12-31T00:00:00Z</time></trkpt>
<trkpt lat="31.04267118" lon="-5.89383152"><ele>1299.359131</ele><time>1989-12-31T00:00:00Z</time></trkpt>
<trkpt lat="31.04280193" lon="-5.89351410"><ele>1300.320557</ele><time>1989-12-31T00:00:00Z</time></trkpt>
<trkpt lat="31.04271652" lon="-5.89342995"><ele>1306.088135</ele><time>1989-12-31T00:00:00Z</time></trkpt>
<trkpt lat="31.04307585" lon="-5.89307263"><ele>1309.933594</ele><time>1989-12-31T00:00:00Z</time></trkpt>
<trkpt lat="31.04355522" lon="-5.89284556"><ele>1313.29834</ele><time>1989-12-31T00:00:00Z</time></trkpt>
<trkpt lat="31.04373132" lon="-5.89273022"><ele>1312.817627</ele><time>1989-12-31T00:00:00Z</time></trkpt>
<trkpt lat="31.04380634" lon="-5.89255689"><ele>1316.182129</ele><time>1989-12-31T00:00:00Z</time></trkpt>
<trkpt lat="31.04377851" lon="-5.89200234"><ele>1308.972412</ele><time>1989-12-31T00:00:00Z</time></trkpt>
<trkpt lat="31.04371925" lon="-5.89193780"><ele>1308.491699</ele><time>1989-12-31T00:00:00Z</time></trkpt>
<trkpt lat="31.04384028" lon="-5.89142407"><ele>1304.165771</ele><time>1989-12-31T00:00:00Z</time></trkpt>
<trkpt lat="31.04389829" lon="-5.89132668"><ele>1306.088135</ele><time>1989-12-31T00:00:00Z</time></trkpt>
<trkpt lat="31.04401236" lon="-5.89097950"><ele>1307.049561</ele><time>1989-12-31T00:00:00Z</time></trkpt>
<trkpt lat="31.04388957" lon="-5.89048270"><ele>1309.933594</ele><time>1989-12-31T00:00:00Z</time></trkpt>
<trkpt lat="31.04387381" lon="-5.89017416"><ele>1309.933594</ele><time>1989-12-31T00:00:00Z</time></trkpt>
<trkpt lat="31.04405846" lon="-5.88979002"><ele>1310.414307</ele><time>1989-12-31T00:00:00Z</time></trkpt>
<trkpt lat="31.04441193" lon="-5.88917848"><ele>1314.740234</ele><time>1989-12-31T00:00:00Z</time></trkpt>
<trkpt lat="31.04455308" lon="-5.88873239"><ele>1315.70166</ele><time>1989-12-31T00:00:00Z</time></trkpt>
<trkpt lat="31.04516773" lon="-5.88784508"><ele>1317.143555</ele><time>1989-12-31T00:00:00Z</time></trkpt>
<trkpt lat="31.04572831" lon="-5.88729993"><ele>1320.98877</ele><time>1989-12-31T00:00:00Z</time></trkpt>
<trkpt lat="31.04577290" lon="-5.88717956"><ele>1321.949951</ele><time>1989-12-31T00:00:00Z</time></trkpt>
<trkpt lat="31.04617900" lon="-5.88686298"><ele>1325.314697</ele><time>1989-12-31T00:00:00Z</time></trkpt>
<trkpt lat="31.04651428" lon="-5.88637917"><ele>1331.082764</ele><time>1989-12-31T00:00:00Z</time></trkpt>
<trkpt lat="31.04686967" lon="-5.88593921"><ele>1336.369873</ele><time>1989-12-31T00:00:00Z</time></trkpt>
<trkpt lat="31.04745909" lon="-5.88530025"><ele>1348.38623</ele><time>1989-12-31T00:00:00Z</time></trkpt>
<trkpt lat="31.04785865" lon="-5.88494880"><ele>1355.596191</ele><time>1989-12-31T00:00:00Z</time></trkpt>
<trkpt lat="31.04792755" lon="-5.88456457"><ele>1363.286865</ele><time>1989-12-31T00:00:00Z</time></trkpt>
<trkpt lat="31.04823424" lon="-5.88452141"><ele>1369.054688</ele><time>1989-12-31T00:00:00Z</time></trkpt>
<trkpt lat="31.04863951" lon="-5.88409502"><ele>1374.822754</ele><time>1989-12-31T00:00:00Z</time></trkpt>
<trkpt lat="31.04879793" lon="-5.88402512"><ele>1376.745361</ele><time>1989-12-31T00:00:00Z</time></trkpt>
<trkpt lat="31.04928458" lon="-5.88361977"><ele>1383.474365</ele><time>1989-12-31T00:00:00Z</time></trkpt>
<trkpt lat="31.04934535" lon="-5.88360392"><ele>1384.916504</ele><time>1989-12-31T00:00:00Z</time></trkpt>
<trkpt lat="31.04951718" lon="-5.88348675"><ele>1387.31958</ele><time>1989-12-31T00:00:00Z</time></trkpt>
<trkpt lat="31.04955766" lon="-5.88340268"><ele>1388.28125</ele><time>1989-12-31T00:00:00Z</time></trkpt>
<trkpt lat="31.04982127" lon="-5.88314778"><ele>1392.607178</ele><time>1989-12-31T00:00:00Z</time></trkpt>
<trkpt lat="31.04993275" lon="-5.88298542"><ele>1396.932861</ele><time>1989-12-31T00:00:00Z</time></trkpt>
<trkpt lat="31.05043475" lon="-5.88259810"><ele>1405.104248</ele><time>1989-12-31T00:00:00Z</time></trkpt>
<trkpt lat="31.05068872" lon="-5.88231948"><ele>1409.910645</ele><time>1989-12-31T00:00:00Z</time></trkpt>
<trkpt lat="31.05101804" lon="-5.88180911"><ele>1415.197998</ele><time>1989-12-31T00:00:00Z</time></trkpt>
<trkpt lat="31.05100790" lon="-5.88173258"><ele>1414.236572</ele><time>1989-12-31T00:00:00Z</time></trkpt>
<trkpt lat="31.05141618" lon="-5.88147928"><ele>1419.523926</ele><time>1989-12-31T00:00:00Z</time></trkpt>
<trkpt lat="31.05148818" lon="-5.88140309"><ele>1421.927246</ele><time>1989-12-31T00:00:00Z</time></trkpt>
<trkpt lat="31.05162707" lon="-5.88136730"><ele>1423.849854</ele><time>1989-12-31T00:00:00Z</time></trkpt>
<trkpt lat="31.05183972" lon="-5.88105868"><ele>1430.579102</ele><time>1989-12-31T00:00:00Z</time></trkpt>
<trkpt lat="31.05207793" lon="-5.88087863"><ele>1435.385498</ele><time>1989-12-31T00:00:00Z</time></trkpt>
<trkpt lat="31.05205824" lon="-5.88044210"><ele>1448.363281</ele><time>1989-12-31T00:00:00Z</time></trkpt>
<trkpt lat="31.05203938" lon="-5.88028503"><ele>1456.534668</ele><time>1989-12-31T00:00:00Z</time></trkpt>
<trkpt lat="31.05194500" lon="-5.88013809"><ele>1458.937988</ele><time>1989-12-31T00:00:00Z</time></trkpt>
<trkpt lat="31.05198766" lon="-5.88015268"><ele>1458.937988</ele><time>1989-12-31T00:00:00Z</time></trkpt>
<trkpt lat="31.05211230" lon="-5.88001354"><ele>1462.30249</ele><time>1989-12-31T00:00:00Z</time></trkpt>
<trkpt lat="31.05233082" lon="-5.87969117"><ele>1470.473877</ele><time>1989-12-31T00:00:00Z</time></trkpt>
<trkpt lat="31.05234054" lon="-5.87962260"><ele>1470.95459</ele><time>1989-12-31T00:00:00Z</time></trkpt>
<trkpt lat="31.05238169" lon="-5.87954708"><ele>1470.95459</ele><time>1989-12-31T00:00:00Z</time></trkpt>
<trkpt lat="31.05264262" lon="-5.87959168"><ele>1473.35791</ele><time>1989-12-31T00:00:00Z</time></trkpt>
<trkpt lat="31.05268629" lon="-5.87951448"><ele>1474.799805</ele><time>1989-12-31T00:00:00Z</time></trkpt>
<trkpt lat="31.05289274" lon="-5.87944239"><ele>1477.683594</ele><time>1989-12-31T00:00:00Z</time></trkpt>
<trkpt lat="31.05300447" lon="-5.87944793"><ele>1478.64502</ele><time>1989-12-31T00:00:00Z</time></trkpt>
<trkpt lat="31.05326624" lon="-5.87925020"><ele>1484.413086</ele><time>1989-12-31T00:00:00Z</time></trkpt>
<trkpt lat="31.05342122" lon="-5.87917384"><ele>1485.85498</ele><time>1989-12-31T00:00:00Z</time></trkpt>
<trkpt lat="31.05345600" lon="-5.87919437"><ele>1485.85498</ele><time>1989-12-31T00:00:00Z</time></trkpt>
<trkpt lat="31.05363538" lon="-5.87917769"><ele>1487.296875</ele><time>1989-12-31T00:00:00Z</time></trkpt>
<trkpt lat="31.05364401" lon="-5.87916302"><ele>1486.816162</ele><time>1989-12-31T00:00:00Z</time></trkpt>
<trkpt lat="31.05370729" lon="-5.87933938"><ele>1484.413086</ele><time>1989-12-31T00:00:00Z</time></trkpt>
<trkpt lat="31.05376496" lon="-5.87938607"><ele>1483.932129</ele><time>1989-12-31T00:00:00Z</time></trkpt>
<trkpt lat="31.05387367" lon="-5.87969502"><ele>1488.258301</ele><time>1989-12-31T00:00:00Z</time></trkpt>
<trkpt lat="31.05389337" lon="-5.88002033"><ele>1484.893799</ele><time>1989-12-31T00:00:00Z</time></trkpt>
<trkpt lat="31.05379337" lon="-5.88020959"><ele>1481.528809</ele><time>1989-12-31T00:00:00Z</time></trkpt>
<trkpt lat="31.05388834" lon="-5.88030171"><ele>1480.567627</ele><time>1989-12-31T00:00:00Z</time></trkpt>
<trkpt lat="31.05400560" lon="-5.88031160"><ele>1481.04834</ele><time>1989-12-31T00:00:00Z</time></trkpt>
<trkpt lat="31.05445253" lon="-5.87984380"><ele>1489.700195</ele><time>1989-12-31T00:00:00Z</time></trkpt>
<trkpt lat="31.05453886" lon="-5.87972000"><ele>1492.103516</ele><time>1989-12-31T00:00:00Z</time></trkpt>
<trkpt lat="31.05473701" lon="-5.87967072"><ele>1493.064697</ele><time>1989-12-31T00:00:00Z</time></trkpt>
<trkpt lat="31.05480742" lon="-5.87971271"><ele>1493.54541</ele><time>1989-12-31T00:00:00Z</time></trkpt>
<trkpt lat="31.05512090" lon="-5.87963920"><ele>1497.871338</ele><time>1989-12-31T00:00:00Z</time></trkpt>
<trkpt lat="31.05518083" lon="-5.87953619"><ele>1498.351807</ele><time>1989-12-31T00:00:00Z</time></trkpt>
<trkpt lat="31.05607518" lon="-5.87835342"><ele>1507.484619</ele><time>1989-12-31T00:00:00Z</time></trkpt>
<trkpt lat="31.05613964" lon="-5.87833012"><ele>1507.484619</ele><time>1989-12-31T00:00:00Z</time></trkpt>
<trkpt lat="31.05618490" lon="-5.87825803"><ele>1508.445801</ele><time>1989-12-31T00:00:00Z</time></trkpt>
<trkpt lat="31.05624701" lon="-5.87823473"><ele>1507.484619</ele><time>1989-12-31T00:00:00Z</time></trkpt>
<trkpt lat="31.05643719" lon="-5.87806273"><ele>1507.003906</ele><time>1989-12-31T00:00:00Z</time></trkpt>
<trkpt lat="31.05651481" lon="-5.87804647"><ele>1507.484619</ele><time>1989-12-31T00:00:00Z</time></trkpt>
<trkpt lat="31.05696199" lon="-5.87766065"><ele>1504.600586</ele><time>1989-12-31T00:00:00Z</time></trkpt>
<trkpt lat="31.05710431" lon="-5.87715187"><ele>1503.639404</ele><time>1989-12-31T00:00:00Z</time></trkpt>
<trkpt lat="31.05717069" lon="-5.87710527"><ele>1502.677979</ele><time>1989-12-31T00:00:00Z</time></trkpt>
<trkpt lat="31.05732140" lon="-5.87650294"><ele>1498.83252</ele><time>1989-12-31T00:00:00Z</time></trkpt>
<trkpt lat="31.05739382" lon="-5.87635425"><ele>1494.506592</ele><time>1989-12-31T00:00:00Z</time></trkpt>
<trkpt lat="31.05755744" lon="-5.87611436"><ele>1492.584229</ele><time>1989-12-31T00:00:00Z</time></trkpt>
<trkpt lat="31.05797435" lon="-5.87537231"><ele>1505.081299</ele><time>1989-12-31T00:00:00Z</time></trkpt>
<trkpt lat="31.05797578" lon="-5.87538304"><ele>1501.716797</ele><time>1989-12-31T00:00:00Z</time></trkpt>
<trkpt lat="31.05790151" lon="-5.87506503"><ele>1508.445801</ele><time>1989-12-31T00:00:00Z</time></trkpt>
<trkpt lat="31.05745216" lon="-5.87464074"><ele>1514.213623</ele><time>1989-12-31T00:00:00Z</time></trkpt>
<trkpt lat="31.05749625" lon="-5.87444770"><ele>1517.578369</ele><time>1989-12-31T00:00:00Z</time></trkpt>
<trkpt lat="31.05755450" lon="-5.87445030"><ele>1518.059082</ele><time>1989-12-31T00:00:00Z</time></trkpt>
<trkpt lat="31.05783236" lon="-5.87426783"><ele>1521.904297</ele><time>1989-12-31T00:00:00Z</time></trkpt>
<trkpt lat="31.05793856" lon="-5.87412818"><ele>1524.307617</ele><time>1989-12-31T00:00:00Z</time></trkpt>
<trkpt lat="31.05804468" lon="-5.87413531"><ele>1525.749512</ele><time>1989-12-31T00:00:00Z</time></trkpt>
<trkpt lat="31.05821843" lon="-5.87402341"><ele>1527.672119</ele><time>1989-12-31T00:00:00Z</time></trkpt>
<trkpt lat="31.05837777" lon="-5.87399022"><ele>1528.633545</ele><time>1989-12-31T00:00:00Z</time></trkpt>
<trkpt lat="31.05838766" lon="-5.87403322"><ele>1528.633545</ele><time>1989-12-31T00:00:00Z</time></trkpt>
<trkpt lat="31.05851398" lon="-5.87389684"><ele>1530.556152</ele><time>1989-12-31T00:00:00Z</time></trkpt>
<trkpt lat="31.05878119" lon="-5.87311456"><ele>1533.440186</ele><time>1989-12-31T00:00:00Z</time></trkpt>
<trkpt lat="31.05873141" lon="-5.87303250"><ele>1534.401611</ele><time>1989-12-31T00:00:00Z</time></trkpt>
<trkpt lat="31.05888999" lon="-5.87273268"><ele>1544.014648</ele><time>1989-12-31T00:00:00Z</time></trkpt>
<trkpt lat="31.05893299" lon="-5.87270544"><ele>1543.533936</ele><time>1989-12-31T00:00:00Z</time></trkpt>
<trkpt lat="31.05906660" lon="-5.87273142"><ele>1545.456543</ele><time>1989-12-31T00:00:00Z</time></trkpt>
<trkpt lat="31.05925201" lon="-5.87273268"><ele>1550.743896</ele><time>1989-12-31T00:00:00Z</time></trkpt>
<trkpt lat="31.05970521" lon="-5.87280644"><ele>1554.589111</ele><time>1989-12-31T00:00:00Z</time></trkpt>
<trkpt lat="31.05965149" lon="-5.87282153"><ele>1553.62793</ele><time>1989-12-31T00:00:00Z</time></trkpt>
<trkpt lat="31.05966624" lon="-5.87267778"><ele>1559.876221</ele><time>1989-12-31T00:00:00Z</time></trkpt>
<trkpt lat="31.05978308" lon="-5.87262749"><ele>1563.240967</ele><time>1989-12-31T00:00:00Z</time></trkpt>
<trkpt lat="31.05992197" lon="-5.87242934"><ele>1572.854248</ele><time>1989-12-31T00:00:00Z</time></trkpt>
<trkpt lat="31.06006748" lon="-5.87235969"><ele>1576.21875</ele><time>1989-12-31T00:00:00Z</time></trkpt>
<trkpt lat="31.06016262" lon="-5.87226522"><ele>1579.583252</ele><time>1989-12-31T00:00:00Z</time></trkpt>
<trkpt lat="31.06030041" lon="-5.87211007"><ele>1581.025635</ele><time>1989-12-31T00:00:00Z</time></trkpt>
<trkpt lat="31.06042011" lon="-5.87173657"><ele>1586.793213</ele><time>1989-12-31T00:00:00Z</time></trkpt>
<trkpt lat="31.06054047" lon="-5.87161118"><ele>1587.273926</ele><time>1989-12-31T00:00:00Z</time></trkpt>
<trkpt lat="31.06066612" lon="-5.87137372"><ele>1590.638428</ele><time>1989-12-31T00:00:00Z</time></trkpt>
<trkpt lat="31.06085035" lon="-5.87104733"><ele>1591.599854</ele><time>1989-12-31T00:00:00Z</time></trkpt>
<trkpt lat="31.06087072" lon="-5.87077877"><ele>1592.561279</ele><time>1989-12-31T00:00:00Z</time></trkpt>
<trkpt lat="31.06105361" lon="-5.86999926"><ele>1596.406738</ele><time>1989-12-31T00:00:00Z</time></trkpt>
<trkpt lat="31.06101472" lon="-5.86973581"><ele>1594.964355</ele><time>1989-12-31T00:00:00Z</time></trkpt>
<trkpt lat="31.06107733" lon="-5.86973280"><ele>1593.522461</ele><time>1989-12-31T00:00:00Z</time></trkpt>
<trkpt lat="31.06109384" lon="-5.86975476"><ele>1592.561279</ele><time>1989-12-31T00:00:00Z</time></trkpt>
<trkpt lat="31.06101103" lon="-5.86967085"><ele>1594.483643</ele><time>1989-12-31T00:00:00Z</time></trkpt>
<trkpt lat="31.06115822" lon="-5.86932393"><ele>1594.003174</ele><time>1989-12-31T00:00:00Z</time></trkpt>
<trkpt lat="31.06119283" lon="-5.86931429"><ele>1593.522461</ele><time>1989-12-31T00:00:00Z</time></trkpt>
<trkpt lat="31.06122033" lon="-5.86934421"><ele>1592.080566</ele><time>1989-12-31T00:00:00Z</time></trkpt>
<trkpt lat="31.06115461" lon="-5.86927959"><ele>1593.041748</ele><time>1989-12-31T00:00:00Z</time></trkpt>
<trkpt lat="31.06098211" lon="-5.86887214"><ele>1594.964355</ele><time>1989-12-31T00:00:00Z</time></trkpt>
<trkpt lat="31.06086443" lon="-5.86837401"><ele>1594.483643</ele><time>1989-12-31T00:00:00Z</time></trkpt>
<trkpt lat="31.06100173" lon="-5.86786103"><ele>1595.445068</ele><time>1989-12-31T00:00:00Z</time></trkpt>
<trkpt lat="31.06115989" lon="-5.86749097"><ele>1597.36792</ele><time>1989-12-31T00:00:00Z</time></trkpt>
<trkpt lat="31.06187487" lon="-5.86677239"><ele>1603.135742</ele><time>1989-12-31T00:00:00Z</time></trkpt>
<trkpt lat="31.06191083" lon="-5.86659302"><ele>1603.616455</ele><time>1989-12-31T00:00:00Z</time></trkpt>
<trkpt lat="31.06250930" lon="-5.86547077"><ele>1610.826172</ele><time>1989-12-31T00:00:00Z</time></trkpt>
<trkpt lat="31.06266780" lon="-5.86521797"><ele>1612.268311</ele><time>1989-12-31T00:00:00Z</time></trkpt>
<trkpt lat="31.06266579" lon="-5.86524957"><ele>1611.787598</ele><time>1989-12-31T00:00:00Z</time></trkpt>
<trkpt lat="31.06281532" lon="-5.86485621"><ele>1615.152344</ele><time>1989-12-31T00:00:00Z</time></trkpt>
<trkpt lat="31.06314540" lon="-5.86434533"><ele>1618.036133</ele><time>1989-12-31T00:00:00Z</time></trkpt>
<trkpt lat="31.06383095" lon="-5.86317002"><ele>1625.24585</ele><time>1989-12-31T00:00:00Z</time></trkpt>
<trkpt lat="31.06401879" lon="-5.86275377"><ele>1630.533447</ele><time>1989-12-31T00:00:00Z</time></trkpt>
<trkpt lat="31.06420437" lon="-5.86239235"><ele>1633.417236</ele><time>1989-12-31T00:00:00Z</time></trkpt>
<trkpt lat="31.06430956" lon="-5.86232923"><ele>1634.859375</ele><time>1989-12-31T00:00:00Z</time></trkpt>
<trkpt lat="31.06474064" lon="-5.86182137"><ele>1638.70459</ele><time>1989-12-31T00:00:00Z</time></trkpt>
<trkpt lat="31.06477987" lon="-5.86150479"><ele>1639.185059</ele><time>1989-12-31T00:00:00Z</time></trkpt>
<trkpt lat="31.06489621" lon="-5.86135081"><ele>1639.185059</ele><time>1989-12-31T00:00:00Z</time></trkpt>
<trkpt lat="31.06503493" lon="-5.86126615"><ele>1639.665771</ele><time>1989-12-31T00:00:00Z</time></trkpt>
<trkpt lat="31.06510174" lon="-5.86126565"><ele>1640.146484</ele><time>1989-12-31T00:00:00Z</time></trkpt>
<trkpt lat="31.06548630" lon="-5.86108644"><ele>1642.069092</ele><time>1989-12-31T00:00:00Z</time></trkpt>
<trkpt lat="31.06609290" lon="-5.86105443"><ele>1646.395264</ele><time>1989-12-31T00:00:00Z</time></trkpt>
<trkpt lat="31.06621435" lon="-5.86099768"><ele>1646.875732</ele><time>1989-12-31T00:00:00Z</time></trkpt>
<trkpt lat="31.06651492" lon="-5.86071094"><ele>1645.914551</ele><time>1989-12-31T00:00:00Z</time></trkpt>
<trkpt lat="31.06675263" lon="-5.86007458"><ele>1643.991699</ele><time>1989-12-31T00:00:00Z</time></trkpt>
<trkpt lat="31.06703301" lon="-5.85992957"><ele>1644.472412</ele><time>1989-12-31T00:00:00Z</time></trkpt>
<trkpt lat="31.06728371" lon="-5.85976822"><ele>1644.953125</ele><time>1989-12-31T00:00:00Z</time></trkpt>
<trkpt lat="31.06790137" lon="-5.85942700"><ele>1647.356445</ele><time>1989-12-31T00:00:00Z</time></trkpt>
<trkpt lat="31.06783072" lon="-5.85979144"><ele>1646.875732</ele><time>1989-12-31T00:00:00Z</time></trkpt>
<trkpt lat="31.06777975" lon="-5.85983017"><ele>1647.356445</ele><time>1989-12-31T00:00:00Z</time></trkpt>
<trkpt lat="31.06776274" lon="-5.85985472"><ele>1693.499756</ele><time>1989-12-31T00:00:00Z</time></trkpt>
<trkpt lat="31.06790858" lon="-5.85982539"><ele>1636.30127</ele><time>1989-12-31T00:00:00Z</time></trkpt>
<trkpt lat="31.06777942" lon="-5.85980569"><ele>1647.837158</ele><time>1989-12-31T00:00:00Z</time></trkpt>
<trkpt lat="31.06800414" lon="-5.85961182"><ele>1648.317627</ele><time>1989-12-31T00:00:00Z</time></trkpt>
<trkpt lat="31.06808058" lon="-5.85946966"><ele>1649.759766</ele><time>1989-12-31T00:00:00Z</time></trkpt>
<trkpt lat="31.06831972" lon="-5.85912156"><ele>1649.279053</ele><time>1989-12-31T00:00:00Z</time></trkpt>
<trkpt lat="31.06853605" lon="-5.85902047"><ele>1649.279053</ele><time>1989-12-31T00:00:00Z</time></trkpt>
<trkpt lat="31.06863186" lon="-5.85905132"><ele>1651.20166</ele><time>1989-12-31T00:00:00Z</time></trkpt>
<trkpt lat="31.07004253" lon="-5.85870096"><ele>1658.411377</ele><time>1989-12-31T00:00:00Z</time></trkpt>
<trkpt lat="31.07130610" lon="-5.85869995"><ele>1666.582764</ele><time>1989-12-31T00:00:00Z</time></trkpt>
<trkpt lat="31.07163761" lon="-5.85850105"><ele>1666.582764</ele><time>1989-12-31T00:00:00Z</time></trkpt>
<trkpt lat="31.07190407" lon="-5.85815974"><ele>1667.063477</ele><time>1989-12-31T00:00:00Z</time></trkpt>
<trkpt lat="31.07219794" lon="-5.85789872"><ele>1667.543945</ele><time>1989-12-31T00:00:00Z</time></trkpt>
<trkpt lat="31.07251360" lon="-5.85785480"><ele>1668.986084</ele><time>1989-12-31T00:00:00Z</time></trkpt>
<trkpt lat="31.07276472" lon="-5.85755498"><ele>1672.831299</ele><time>1989-12-31T00:00:00Z</time></trkpt>
<trkpt lat="31.07298642" lon="-5.85735499"><ele>1676.676758</ele><time>1989-12-31T00:00:00Z</time></trkpt>
<trkpt lat="31.07324408" lon="-5.85737200"><ele>1676.676758</ele><time>1989-12-31T00:00:00Z</time></trkpt>
<trkpt lat="31.07427204" lon="-5.85726857"><ele>1676.676758</ele><time>1989-12-31T00:00:00Z</time></trkpt>
<trkpt lat="31.07466666" lon="-5.85730067"><ele>1678.118652</ele><time>1989-12-31T00:00:00Z</time></trkpt>
<trkpt lat="31.07548532" lon="-5.85743797"><ele>1682.925049</ele><time>1989-12-31T00:00:00Z</time></trkpt>
<trkpt lat="31.07587290" lon="-5.85747619"><ele>1686.289795</ele><time>1989-12-31T00:00:00Z</time></trkpt>
<trkpt lat="31.07819511" lon="-5.85675568"><ele>1687.250977</ele><time>1989-12-31T00:00:00Z</time></trkpt>
<trkpt lat="31.07847640" lon="-5.85670229"><ele>1689.173584</ele><time>1989-12-31T00:00:00Z</time></trkpt>
<trkpt lat="31.07864672" lon="-5.85664161"><ele>1687.731689</ele><time>1989-12-31T00:00:00Z</time></trkpt>
<trkpt lat="31.07883356" lon="-5.85670087"><ele>1687.250977</ele><time>1989-12-31T00:00:00Z</time></trkpt>
<trkpt lat="31.07891888" lon="-5.85678586"><ele>1688.212402</ele><time>1989-12-31T00:00:00Z</time></trkpt>
<trkpt lat="31.07905316" lon="-5.85685953"><ele>1685.328369</ele><time>1989-12-31T00:00:00Z</time></trkpt>
<trkpt lat="31.07954711" lon="-5.85656977"><ele>1687.250977</ele><time>1989-12-31T00:00:00Z</time></trkpt>
<trkpt lat="31.07979747" lon="-5.85626375"><ele>1688.693115</ele><time>1989-12-31T00:00:00Z</time></trkpt>
<trkpt lat="31.07986503" lon="-5.85625780"><ele>1689.173584</ele><time>1989-12-31T00:00:00Z</time></trkpt>
<trkpt lat="31.08081261" lon="-5.85530612"><ele>1691.096191</ele><time>1989-12-31T00:00:00Z</time></trkpt>
<trkpt lat="31.08121938" lon="-5.85480127"><ele>1688.212402</ele><time>1989-12-31T00:00:00Z</time></trkpt>
<trkpt lat="31.08178549" lon="-5.85439450"><ele>1686.770264</ele><time>1989-12-31T00:00:00Z</time></trkpt>
<trkpt lat="31.08203268" lon="-5.85437187"><ele>1686.289795</ele><time>1989-12-31T00:00:00Z</time></trkpt>
<trkpt lat="31.08204349" lon="-5.85380157"><ele>1686.770264</ele><time>1989-12-31T00:00:00Z</time></trkpt>
<trkpt lat="31.08265067" lon="-5.85328666"><ele>1687.250977</ele><time>1989-12-31T00:00:00Z</time></trkpt>
<trkpt lat="31.08286240" lon="-5.85322020"><ele>1687.731689</ele><time>1989-12-31T00:00:00Z</time></trkpt>
<trkpt lat="31.08313632" lon="-5.85335288"><ele>1683.886475</ele><time>1989-12-31T00:00:00Z</time></trkpt>
<trkpt lat="31.08340002" lon="-5.85363586"><ele>1682.44458</ele><time>1989-12-31T00:00:00Z</time></trkpt>
<trkpt lat="31.08364712" lon="-5.85373241"><ele>1676.196045</ele><time>1989-12-31T00:00:00Z</time></trkpt>
<trkpt lat="31.08367746" lon="-5.85334240"><ele>1671.869873</ele><time>1989-12-31T00:00:00Z</time></trkpt>
<trkpt lat="31.08380763" lon="-5.85302456"><ele>1671.869873</ele><time>1989-12-31T00:00:00Z</time></trkpt>
<trkpt lat="31.08389413" lon="-5.85293379"><ele>1671.869873</ele><time>1989-12-31T00:00:00Z</time></trkpt>
<trkpt lat="31.08411047" lon="-5.85168991"><ele>1668.505371</ele><time>1989-12-31T00:00:00Z</time></trkpt>
<trkpt lat="31.08433158" lon="-5.85124877"><ele>1668.986084</ele><time>1989-12-31T00:00:00Z</time></trkpt>
<trkpt lat="31.08450433" lon="-5.85110092"><ele>1668.505371</ele><time>1989-12-31T00:00:00Z</time></trkpt>
<trkpt lat="31.08460441" lon="-5.85093663"><ele>1665.621582</ele><time>1989-12-31T00:00:00Z</time></trkpt>
<trkpt lat="31.08469963" lon="-5.85042492"><ele>1662.256836</ele><time>1989-12-31T00:00:00Z</time></trkpt>
<trkpt lat="31.08471975" lon="-5.85018620"><ele>1659.853271</ele><time>1989-12-31T00:00:00Z</time></trkpt>
<trkpt lat="31.08468371" lon="-5.85004630"><ele>1659.372803</ele><time>1989-12-31T00:00:00Z</time></trkpt>
<trkpt lat="31.08485210" lon="-5.85006961"><ele>1655.527588</ele><time>1989-12-31T00:00:00Z</time></trkpt>
<trkpt lat="31.08516952" lon="-5.85006374"><ele>1652.643555</ele><time>1989-12-31T00:00:00Z</time></trkpt>
<trkpt lat="31.08533540" lon="-5.85012845"><ele>1653.60498</ele><time>1989-12-31T00:00:00Z</time></trkpt>
<trkpt lat="31.08543707" lon="-5.85012853"><ele>1653.124268</ele><time>1989-12-31T00:00:00Z</time></trkpt>
<trkpt lat="31.08578148" lon="-5.85025476"><ele>1652.643555</ele><time>1989-12-31T00:00:00Z</time></trkpt>
<trkpt lat="31.08648766" lon="-5.85046967"><ele>1655.527588</ele><time>1989-12-31T00:00:00Z</time></trkpt>
<trkpt lat="31.08663711" lon="-5.85054360"><ele>1653.124268</ele><time>1989-12-31T00:00:00Z</time></trkpt>
<trkpt lat="31.08675814" lon="-5.85076187"><ele>1651.20166</ele><time>1989-12-31T00:00:00Z</time></trkpt>
<trkpt lat="31.08670961" lon="-5.85097401"><ele>1649.279053</ele><time>1989-12-31T00:00:00Z</time></trkpt>
<trkpt lat="31.08689854" lon="-5.85117468"><ele>1647.837158</ele><time>1989-12-31T00:00:00Z</time></trkpt>
<trkpt lat="31.08698160" lon="-5.85109413"><ele>1648.317627</ele><time>1989-12-31T00:00:00Z</time></trkpt>
<trkpt lat="31.08701488" lon="-5.85102146"><ele>1648.79834</ele><time>1989-12-31T00:00:00Z</time></trkpt>
<trkpt lat="31.08715435" lon="-5.85047060"><ele>1649.279053</ele><time>1989-12-31T00:00:00Z</time></trkpt>
<trkpt lat="31.08715142" lon="-5.85030355"><ele>1649.759766</ele><time>1989-12-31T00:00:00Z</time></trkpt>
<trkpt lat="31.08699409" lon="-5.85004597"><ele>1649.759766</ele><time>1989-12-31T00:00:00Z</time></trkpt>
<trkpt lat="31.08700147" lon="-5.84968186"><ele>1653.124268</ele><time>1989-12-31T00:00:00Z</time></trkpt>
<trkpt lat="31.08704573" lon="-5.84958589"><ele>1652.643555</ele><time>1989-12-31T00:00:00Z</time></trkpt>
<trkpt lat="31.08711647" lon="-5.84952428"><ele>1654.085693</ele><time>1989-12-31T00:00:00Z</time></trkpt>
<trkpt lat="31.08713709" lon="-5.84935631"><ele>1655.046875</ele><time>1989-12-31T00:00:00Z</time></trkpt>
<trkpt lat="31.08726961" lon="-5.84931926"><ele>1656.48877</ele><time>1989-12-31T00:00:00Z</time></trkpt>
<trkpt lat="31.08776322" lon="-5.84942244"><ele>1660.334229</ele><time>1989-12-31T00:00:00Z</time></trkpt>
<trkpt lat="31.08804896" lon="-5.84920191"><ele>1660.814941</ele><time>1989-12-31T00:00:00Z</time></trkpt>
<trkpt lat="31.08906719" lon="-5.84939168"><ele>1663.218262</ele><time>1989-12-31T00:00:00Z</time></trkpt>
<trkpt lat="31.08942392" lon="-5.84935388"><ele>1662.737549</ele><time>1989-12-31T00:00:00Z</time></trkpt>
<trkpt lat="31.08942744" lon="-5.84923854"><ele>1662.737549</ele><time>1989-12-31T00:00:00Z</time></trkpt>
<trkpt lat="31.08958117" lon="-5.84917048"><ele>1660.814941</ele><time>1989-12-31T00:00:00Z</time></trkpt>
<trkpt lat="31.08955627" lon="-5.84899924"><ele>1657.930908</ele><time>1989-12-31T00:00:00Z</time></trkpt>
<trkpt lat="31.08971436" lon="-5.84869984"><ele>1660.334229</ele><time>1989-12-31T00:00:00Z</time></trkpt>
<trkpt lat="31.08979541" lon="-5.84870512"><ele>1663.218262</ele><time>1989-12-31T00:00:00Z</time></trkpt>
<trkpt lat="31.08984805" lon="-5.84860671"><ele>1663.69873</ele><time>1989-12-31T00:00:00Z</time></trkpt>
<trkpt lat="31.08999934" lon="-5.84857738"><ele>1665.621582</ele><time>1989-12-31T00:00:00Z</time></trkpt>
<trkpt lat="31.09038558" lon="-5.84833975"><ele>1673.79248</ele><time>1989-12-31T00:00:00Z</time></trkpt>
<trkpt lat="31.09064902" lon="-5.84828133"><ele>1678.599365</ele><time>1989-12-31T00:00:00Z</time></trkpt>
<trkpt lat="31.09136635" lon="-5.84789995"><ele>1691.576904</ele><time>1989-12-31T00:00:00Z</time></trkpt>
<trkpt lat="31.09162945" lon="-5.84771446"><ele>1698.786865</ele><time>1989-12-31T00:00:00Z</time></trkpt>
<trkpt lat="31.09184260" lon="-5.84762813"><ele>1699.748291</ele><time>1989-12-31T00:00:00Z</time></trkpt>
<trkpt lat="31.09206892" lon="-5.84759879"><ele>1699.748291</ele><time>1989-12-31T00:00:00Z</time></trkpt>
<trkpt lat="31.09218098" lon="-5.84752025"><ele>1698.786865</ele><time>1989-12-31T00:00:00Z</time></trkpt>
<trkpt lat="31.09224879" lon="-5.84753634"><ele>1698.786865</ele><time>1989-12-31T00:00:00Z</time></trkpt>
<trkpt lat="31.09230361" lon="-5.84749209"><ele>1699.267578</ele><time>1989-12-31T00:00:00Z</time></trkpt>
<trkpt lat="31.09243277" lon="-5.84751623"><ele>1699.267578</ele><time>1989-12-31T00:00:00Z</time></trkpt>
<trkpt lat="31.09260033" lon="-5.84747826"><ele>1698.306152</ele><time>1989-12-31T00:00:00Z</time></trkpt>
<trkpt lat="31.09308941" lon="-5.84736066"><ele>1702.63208</ele><time>1989-12-31T00:00:00Z</time></trkpt>
<trkpt lat="31.09409356" lon="-5.84728916"><ele>1708.880859</ele><time>1989-12-31T00:00:00Z</time></trkpt>
<trkpt lat="31.09420085" lon="-5.84724583"><ele>1709.842041</ele><time>1989-12-31T00:00:00Z</time></trkpt>
<trkpt lat="31.09445424" lon="-5.84723703"><ele>1711.764893</ele><time>1989-12-31T00:00:00Z</time></trkpt>
<trkpt lat="31.09474098" lon="-5.84673118"><ele>1717.052002</ele><time>1989-12-31T00:00:00Z</time></trkpt>
<trkpt lat="31.09484333" lon="-5.84663269"><ele>1715.129395</ele><time>1989-12-31T00:00:00Z</time></trkpt>
<trkpt lat="31.09491969" lon="-5.84661576"><ele>1715.129395</ele><time>1989-12-31T00:00:00Z</time></trkpt>
<trkpt lat="31.09545562" lon="-5.84625383"><ele>1710.803467</ele><time>1989-12-31T00:00:00Z</time></trkpt>
<trkpt lat="31.09552796" lon="-5.84614294"><ele>1708.400146</ele><time>1989-12-31T00:00:00Z</time></trkpt>
<trkpt lat="31.09552477" lon="-5.84583943"><ele>1706.958008</ele><time>1989-12-31T00:00:00Z</time></trkpt>
<trkpt lat="31.09568068" lon="-5.84562887"><ele>1707.438721</ele><time>1989-12-31T00:00:00Z</time></trkpt>
<trkpt lat="31.09581152" lon="-5.84535629"><ele>1707.919434</ele><time>1989-12-31T00:00:00Z</time></trkpt>
<trkpt lat="31.09584874" lon="-5.84519411"><ele>1707.438721</ele><time>1989-12-31T00:00:00Z</time></trkpt>
<trkpt lat="31.09613908" lon="-5.84489672"><ele>1706.477295</ele><time>1989-12-31T00:00:00Z</time></trkpt>
<trkpt lat="31.09613246" lon="-5.84482564"><ele>1706.477295</ele><time>1989-12-31T00:00:00Z</time></trkpt>
<trkpt lat="31.09639825" lon="-5.84435700"><ele>1707.438721</ele><time>1989-12-31T00:00:00Z</time></trkpt>
<trkpt lat="31.09643698" lon="-5.84429582"><ele>1708.880859</ele><time>1989-12-31T00:00:00Z</time></trkpt>
<trkpt lat="31.09643849" lon="-5.84417654"><ele>1708.400146</ele><time>1989-12-31T00:00:00Z</time></trkpt>
<trkpt lat="31.09630463" lon="-5.84379307"><ele>1706.958008</ele><time>1989-12-31T00:00:00Z</time></trkpt>
<trkpt lat="31.09630027" lon="-5.84368687"><ele>1706.477295</ele><time>1989-12-31T00:00:00Z</time></trkpt>
<trkpt lat="31.09623095" lon="-5.84366038"><ele>1706.477295</ele><time>1989-12-31T00:00:00Z</time></trkpt>
<trkpt lat="31.09616582" lon="-5.84367438"><ele>1705.0354</ele><time>1989-12-31T00:00:00Z</time></trkpt>
<trkpt lat="31.09631276" lon="-5.84345109"><ele>1703.593506</ele><time>1989-12-31T00:00:00Z</time></trkpt>
<trkpt lat="31.09656891" lon="-5.84326870"><ele>1704.074219</ele><time>1989-12-31T00:00:00Z</time></trkpt>
<trkpt lat="31.09669254" lon="-5.84297961"><ele>1703.593506</ele><time>1989-12-31T00:00:00Z</time></trkpt>
<trkpt lat="31.09678851" lon="-5.84289311"><ele>1704.074219</ele><time>1989-12-31T00:00:00Z</time></trkpt>
<trkpt lat="31.09697694" lon="-5.84292135"><ele>1706.958008</ele><time>1989-12-31T00:00:00Z</time></trkpt>
<trkpt lat="31.09705925" lon="-5.84303945"><ele>1707.438721</ele><time>1989-12-31T00:00:00Z</time></trkpt>
<trkpt lat="31.09740291" lon="-5.84330063"><ele>1709.842041</ele><time>1989-12-31T00:00:00Z</time></trkpt>
<trkpt lat="31.09759024" lon="-5.84337708"><ele>1711.764893</ele><time>1989-12-31T00:00:00Z</time></trkpt>
<trkpt lat="31.09759661" lon="-5.84341597"><ele>1711.28418</ele><time>1989-12-31T00:00:00Z</time></trkpt>
<trkpt lat="31.09763517" lon="-5.84334849"><ele>1710.322754</ele><time>1989-12-31T00:00:00Z</time></trkpt>
<trkpt lat="31.09775377" lon="-5.84338613"><ele>1711.28418</ele><time>1989-12-31T00:00:00Z</time></trkpt>
<trkpt lat="31.09803306" lon="-5.84336098"><ele>1711.28418</ele><time>1989-12-31T00:00:00Z</time></trkpt>
<trkpt lat="31.09798620" lon="-5.84332167"><ele>1713.687256</ele><time>1989-12-31T00:00:00Z</time></trkpt>
<trkpt lat="31.09798989" lon="-5.84338378"><ele>1712.726074</ele><time>1989-12-31T00:00:00Z</time></trkpt>
<trkpt lat="31.09800364" lon="-5.84338336"><ele>1709.842041</ele><time>1989-12-31T00:00:00Z</time></trkpt>
<trkpt lat="31.09851728" lon="-5.84352485"><ele>1718.974609</ele><time>1989-12-31T00:00:00Z</time></trkpt>
<trkpt lat="31.09856028" lon="-5.84331128"><ele>1718.013184</ele><time>1989-12-31T00:00:00Z</time></trkpt>
<trkpt lat="31.09928808" lon="-5.84315605"><ele>1723.781006</ele><time>1989-12-31T00:00:00Z</time></trkpt>
<trkpt lat="31.09972117" lon="-5.84311321"><ele>1724.261963</ele><time>1989-12-31T00:00:00Z</time></trkpt>
<trkpt lat="31.09988018" lon="-5.84279059"><ele>1723.781006</ele><time>1989-12-31T00:00:00Z</time></trkpt>
<trkpt lat="31.10109556" lon="-5.84191862"><ele>1731.952393</ele><time>1989-12-31T00:00:00Z</time></trkpt>
<trkpt lat="31.10139186" lon="-5.84174629"><ele>1736.27832</ele><time>1989-12-31T00:00:00Z</time></trkpt>
<trkpt lat="31.10176309" lon="-5.84158394"><ele>1741.084961</ele><time>1989-12-31T00:00:00Z</time></trkpt>
<trkpt lat="31.10208571" lon="-5.84167656"><ele>1749.256104</ele><time>1989-12-31T00:00:00Z</time></trkpt>
<trkpt lat="31.10213759" lon="-5.84153725"><ele>1752.139893</ele><time>1989-12-31T00:00:00Z</time></trkpt>
<trkpt lat="31.10258988" lon="-5.84151185"><ele>1756.466064</ele><time>1989-12-31T00:00:00Z</time></trkpt>
<trkpt lat="31.10296514" lon="-5.84150171"><ele>1762.233887</ele><time>1989-12-31T00:00:00Z</time></trkpt>
<trkpt lat="31.10311048" lon="-5.84117188"><ele>1765.598633</ele><time>1989-12-31T00:00:00Z</time></trkpt>
<trkpt lat="31.10314476" lon="-5.84099502"><ele>1772.808594</ele><time>1989-12-31T00:00:00Z</time></trkpt>
<trkpt lat="31.10307687" lon="-5.84098882"><ele>1774.731201</ele><time>1989-12-31T00:00:00Z</time></trkpt>
<trkpt lat="31.10307259" lon="-5.84083015"><ele>1778.095703</ele><time>1989-12-31T00:00:00Z</time></trkpt>
<trkpt lat="31.10317008" lon="-5.84074281"><ele>1783.382813</ele><time>1989-12-31T00:00:00Z</time></trkpt>
<trkpt lat="31.10309808" lon="-5.84070954"><ele>1785.30542</ele><time>1989-12-31T00:00:00Z</time></trkpt>
<trkpt lat="31.10319053" lon="-5.84059940"><ele>1788.189697</ele><time>1989-12-31T00:00:00Z</time></trkpt>
<trkpt lat="31.10403123" lon="-5.84055095"><ele>1810.780518</ele><time>1989-12-31T00:00:00Z</time></trkpt>
<trkpt lat="31.10429962" lon="-5.84074114"><ele>1814.14502</ele><time>1989-12-31T00:00:00Z</time></trkpt>
<trkpt lat="31.10433768" lon="-5.84040192"><ele>1826.161621</ele><time>1989-12-31T00:00:00Z</time></trkpt>
<trkpt lat="31.10447765" lon="-5.84044307"><ele>1827.123047</ele><time>1989-12-31T00:00:00Z</time></trkpt>
<trkpt lat="31.10456835" lon="-5.84043846"><ele>1830.487549</ele><time>1989-12-31T00:00:00Z</time></trkpt>
<trkpt lat="31.10455007" lon="-5.84026312"><ele>1838.658936</ele><time>1989-12-31T00:00:00Z</time></trkpt>
<trkpt lat="31.10444555" lon="-5.84021349"><ele>1841.062012</ele><time>1989-12-31T00:00:00Z</time></trkpt>
<trkpt lat="31.10453800" lon="-5.84017150"><ele>1842.023438</ele><time>1989-12-31T00:00:00Z</time></trkpt>
<trkpt lat="31.10444052" lon="-5.84013152"><ele>1843.465332</ele><time>1989-12-31T00:00:00Z</time></trkpt>
<trkpt lat="31.10458838" lon="-5.84005633"><ele>1847.79126</ele><time>1989-12-31T00:00:00Z</time></trkpt>
<trkpt lat="31.10454546" lon="-5.84003094"><ele>1846.829834</ele><time>1989-12-31T00:00:00Z</time></trkpt>
<trkpt lat="31.10404707" lon="-5.83996380"><ele>1852.5979</ele><time>1989-12-31T00:00:00Z</time></trkpt>
<trkpt lat="31.10380844" lon="-5.83967571"><ele>1855.001221</ele><time>1989-12-31T00:00:00Z</time></trkpt>
<trkpt lat="31.10381758" lon="-5.83945896"><ele>1859.327148</ele><time>1989-12-31T00:00:00Z</time></trkpt>
<trkpt lat="31.10391154" lon="-5.83933029"><ele>1861.730469</ele><time>1989-12-31T00:00:00Z</time></trkpt>
<trkpt lat="31.10398949" lon="-5.83936147"><ele>1863.652832</ele><time>1989-12-31T00:00:00Z</time></trkpt>
<trkpt lat="31.10400533" lon="-5.83932795"><ele>1864.133545</ele><time>1989-12-31T00:00:00Z</time></trkpt>
<trkpt lat="31.10404154" lon="-5.83918378"><ele>1869.421143</ele><time>1989-12-31T00:00:00Z</time></trkpt>
<trkpt lat="31.10412436" lon="-5.83931210"><ele>1871.824219</ele><time>1989-12-31T00:00:00Z</time></trkpt>
<trkpt lat="31.10424891" lon="-5.83936491"><ele>1873.746826</ele><time>1989-12-31T00:00:00Z</time></trkpt>
<trkpt lat="31.10436332" lon="-5.83926952"><ele>1876.630859</ele><time>1989-12-31T00:00:00Z</time></trkpt>
<trkpt lat="31.10450372" lon="-5.83931839"><ele>1878.553467</ele><time>1989-12-31T00:00:00Z</time></trkpt>
<trkpt lat="31.10462693" lon="-5.83930833"><ele>1879.995361</ele><time>1989-12-31T00:00:00Z</time></trkpt>
<trkpt lat="31.10482450" lon="-5.83951285"><ele>1878.072754</ele><time>1989-12-31T00:00:00Z</time></trkpt>
<trkpt lat="31.10497269" lon="-5.83954881"><ele>1877.111572</ele><time>1989-12-31T00:00:00Z</time></trkpt>
<trkpt lat="31.10505952" lon="-5.83966414"><ele>1880.476074</ele><time>1989-12-31T00:00:00Z</time></trkpt>
<trkpt lat="31.10513815" lon="-5.83964109"><ele>1882.87915</ele><time>1989-12-31T00:00:00Z</time></trkpt>
<trkpt lat="31.10518676" lon="-5.83975945"><ele>1883.359863</ele><time>1989-12-31T00:00:00Z</time></trkpt>
<trkpt lat="31.10543805" lon="-5.83993237"><ele>1886.724609</ele><time>1989-12-31T00:00:00Z</time></trkpt>
<trkpt lat="31.10564517" lon="-5.84015164"><ele>1890.089355</ele><time>1989-12-31T00:00:00Z</time></trkpt>
<trkpt lat="31.10599268" lon="-5.84035993"><ele>1892.492676</ele><time>1989-12-31T00:00:00Z</time></trkpt>
<trkpt lat="31.10614213" lon="-5.84041508"><ele>1896.818359</ele><time>1989-12-31T00:00:00Z</time></trkpt>
<trkpt lat="31.10621053" lon="-5.84051432"><ele>1900.18335</ele><time>1989-12-31T00:00:00Z</time></trkpt>
<trkpt lat="31.10619762" lon="-5.84049471"><ele>1899.22168</ele><time>1989-12-31T00:00:00Z</time></trkpt>
<trkpt lat="31.10624556" lon="-5.84047006"><ele>1900.663818</ele><time>1989-12-31T00:00:00Z</time></trkpt>
<trkpt lat="31.10623257" lon="-5.84042447"><ele>1899.22168</ele><time>1989-12-31T00:00:00Z</time></trkpt>
<trkpt lat="31.10617692" lon="-5.84039739"><ele>1898.740967</ele><time>1989-12-31T00:00:00Z</time></trkpt>
<trkpt lat="31.10635512" lon="-5.84075253"><ele>1895.376465</ele><time>1989-12-31T00:00:00Z</time></trkpt>
<trkpt lat="31.10642552" lon="-5.84079771"><ele>1895.376465</ele><time>1989-12-31T00:00:00Z</time></trkpt>
<trkpt lat="31.10644254" lon="-5.84088187"><ele>1897.299072</ele><time>1989-12-31T00:00:00Z</time></trkpt>
<trkpt lat="31.10632184" lon="-5.84108873"><ele>1899.22168</ele><time>1989-12-31T00:00:00Z</time></trkpt>
<trkpt lat="31.10618094" lon="-5.84131387"><ele>1906.431641</ele><time>1989-12-31T00:00:00Z</time></trkpt>
<trkpt lat="31.10624716" lon="-5.84143365"><ele>1908.354248</ele><time>1989-12-31T00:00:00Z</time></trkpt>
<trkpt lat="31.10636056" lon="-5.84150464"><ele>1911.238281</ele><time>1989-12-31T00:00:00Z</time></trkpt>
<trkpt lat="31.10656894" lon="-5.84152518"><ele>1914.602783</ele><time>1989-12-31T00:00:00Z</time></trkpt>
<trkpt lat="31.10656139" lon="-5.84146307"><ele>1914.602783</ele><time>1989-12-31T00:00:00Z</time></trkpt>
<trkpt lat="31.10675468" lon="-5.84125067"><ele>1922.293457</ele><time>1989-12-31T00:00:00Z</time></trkpt>
<trkpt lat="31.10694462" lon="-5.84128655"><ele>1927.100098</ele><time>1989-12-31T00:00:00Z</time></trkpt>
<trkpt lat="31.10705417" lon="-5.84125486"><ele>1929.503174</ele><time>1989-12-31T00:00:00Z</time></trkpt>
<trkpt lat="31.10712977" lon="-5.84128160"><ele>1932.86792</ele><time>1989-12-31T00:00:00Z</time></trkpt>
<trkpt lat="31.10719456" lon="-5.84135477"><ele>1933.829346</ele><time>1989-12-31T00:00:00Z</time></trkpt>
<trkpt lat="31.10717914" lon="-5.84144513"><ele>1936.713135</ele><time>1989-12-31T00:00:00Z</time></trkpt>
<trkpt lat="31.10711879" lon="-5.84166289"><ele>1940.077881</ele><time>1989-12-31T00:00:00Z</time></trkpt>
<trkpt lat="31.10721124" lon="-5.84171352"><ele>1941.519775</ele><time>1989-12-31T00:00:00Z</time></trkpt>
<trkpt lat="31.10741610" lon="-5.84168200"><ele>1944.884277</ele><time>1989-12-31T00:00:00Z</time></trkpt>
<trkpt lat="31.10751961" lon="-5.84199138"><ele>1953.536377</ele><time>1989-12-31T00:00:00Z</time></trkpt>
<trkpt lat="31.10748357" lon="-5.84229372"><ele>1956.900879</ele><time>1989-12-31T00:00:00Z</time></trkpt>
<trkpt lat="31.10752422" lon="-5.84246378"><ele>1959.304199</ele><time>1989-12-31T00:00:00Z</time></trkpt>
<trkpt lat="31.10742481" lon="-5.84252095"><ele>1962.187988</ele><time>1989-12-31T00:00:00Z</time></trkpt>
<trkpt lat="31.10737167" lon="-5.84262514"><ele>1965.552979</ele><time>1989-12-31T00:00:00Z</time></trkpt>
<trkpt lat="31.10741233" lon="-5.84267920"><ele>1965.072266</ele><time>1989-12-31T00:00:00Z</time></trkpt>
<trkpt lat="31.10741015" lon="-5.84268004"><ele>1966.994873</ele><time>1989-12-31T00:00:00Z</time></trkpt>
<trkpt lat="31.10745004" lon="-5.84278179"><ele>1966.994873</ele><time>1989-12-31T00:00:00Z</time></trkpt>
<trkpt lat="31.10775623" lon="-5.84253964"><ele>1964.11084</ele><time>1989-12-31T00:00:00Z</time></trkpt>
<trkpt lat="31.10780803" lon="-5.84254316"><ele>1964.11084</ele><time>1989-12-31T00:00:00Z</time></trkpt>
<trkpt lat="31.10817525" lon="-5.84258490"><ele>1960.265381</ele><time>1989-12-31T00:00:00Z</time></trkpt>
<trkpt lat="31.10830408" lon="-5.84266671"><ele>1958.342773</ele><time>1989-12-31T00:00:00Z</time></trkpt>
<trkpt lat="31.10820081" lon="-5.84277970"><ele>1959.304199</ele><time>1989-12-31T00:00:00Z</time></trkpt>
<trkpt lat="31.10804432" lon="-5.84263930"><ele>1961.70752</ele><time>1989-12-31T00:00:00Z</time></trkpt>
<trkpt lat="31.10795447" lon="-5.84251173"><ele>1963.629883</ele><time>1989-12-31T00:00:00Z</time></trkpt>
<trkpt lat="31.10799151" lon="-5.84242037"><ele>1965.072266</ele><time>1989-12-31T00:00:00Z</time></trkpt>
<trkpt lat="31.10807206" lon="-5.84236018"><ele>1965.552979</ele><time>1989-12-31T00:00:00Z</time></trkpt>
<trkpt lat="31.10828287" lon="-5.84233303"><ele>1971.80127</ele><time>1989-12-31T00:00:00Z</time></trkpt>
<trkpt lat="31.10862778" lon="-5.84245247"><ele>1978.049805</ele><time>1989-12-31T00:00:00Z</time></trkpt>
<trkpt lat="31.10867766" lon="-5.84249513"><ele>1979.010986</ele><time>1989-12-31T00:00:00Z</time></trkpt>
<trkpt lat="31.10867933" lon="-5.84254115"><ele>1982.375977</ele><time>1989-12-31T00:00:00Z</time></trkpt>
<trkpt lat="31.10880850" lon="-5.84257208"><ele>1985.259766</ele><time>1989-12-31T00:00:00Z</time></trkpt>
<trkpt lat="31.10889441" lon="-5.84248139"><ele>1986.70166</ele><time>1989-12-31T00:00:00Z</time></trkpt>
<trkpt lat="31.10914545" lon="-5.84247837"><ele>1990.546875</ele><time>1989-12-31T00:00:00Z</time></trkpt>
<trkpt lat="31.10907328" lon="-5.84241970"><ele>1993.911621</ele><time>1989-12-31T00:00:00Z</time></trkpt>
<trkpt lat="31.10910111" lon="-5.84234308"><ele>1996.315186</ele><time>1989-12-31T00:00:00Z</time></trkpt>
<trkpt lat="31.10931502" lon="-5.84235515"><ele>1998.237549</ele><time>1989-12-31T00:00:00Z</time></trkpt>
<trkpt lat="31.10948299" lon="-5.84240880"><ele>1999.679688</ele><time>1989-12-31T00:00:00Z</time></trkpt>
<trkpt lat="31.10961869" lon="-5.84242581"><ele>2005.44751</ele><time>1989-12-31T00:00:00Z</time></trkpt>
<trkpt lat="31.11001180" lon="-5.84269881"><ele>2012.657471</ele><time>1989-12-31T00:00:00Z</time></trkpt>
<trkpt lat="31.11020425" lon="-5.84250301"><ele>2019.867188</ele><time>1989-12-31T00:00:00Z</time></trkpt>
<trkpt lat="31.11059049" lon="-5.84266126"><ele>2022.270508</ele><time>1989-12-31T00:00:00Z</time></trkpt>
<trkpt lat="31.11088444" lon="-5.84257074"><ele>2026.596436</ele><time>1989-12-31T00:00:00Z</time></trkpt>
<trkpt lat="31.11100397" lon="-5.84261583"><ele>2027.077148</ele><time>1989-12-31T00:00:00Z</time></trkpt>
<trkpt lat="31.11133221" lon="-5.84262589"><ele>2034.767822</ele><time>1989-12-31T00:00:00Z</time></trkpt>
<trkpt lat="31.11141234" lon="-5.84280501"><ele>2038.613037</ele><time>1989-12-31T00:00:00Z</time></trkpt>
<trkpt lat="31.11143053" lon="-5.84276905"><ele>2041.016113</ele><time>1989-12-31T00:00:00Z</time></trkpt>
<trkpt lat="31.11149347" lon="-5.84282236"><ele>2044.380859</ele><time>1989-12-31T00:00:00Z</time></trkpt>
<trkpt lat="31.11152231" lon="-5.84278431"><ele>2045.342285</ele><time>1989-12-31T00:00:00Z</time></trkpt>
<trkpt lat="31.11168567" lon="-5.84275807"><ele>2053.032715</ele><time>1989-12-31T00:00:00Z</time></trkpt>
<trkpt lat="31.11174677" lon="-5.84263477"><ele>2055.916504</ele><time>1989-12-31T00:00:00Z</time></trkpt>
<trkpt lat="31.11181173" lon="-5.84259169"><ele>2058.319824</ele><time>1989-12-31T00:00:00Z</time></trkpt>
<trkpt lat="31.11214081" lon="-5.84258138"><ele>2068.413818</ele><time>1989-12-31T00:00:00Z</time></trkpt>
<trkpt lat="31.11237131" lon="-5.84259328"><ele>2071.77832</ele><time>1989-12-31T00:00:00Z</time></trkpt>
<trkpt lat="31.11255823" lon="-5.84267534"><ele>2073.700928</ele><time>1989-12-31T00:00:00Z</time></trkpt>
<trkpt lat="31.11267272" lon="-5.84270963"><ele>2077.546387</ele><time>1989-12-31T00:00:00Z</time></trkpt>
<trkpt lat="31.11262050" lon="-5.84246672"><ele>2082.833496</ele><time>1989-12-31T00:00:00Z</time></trkpt>
<trkpt lat="31.11281698" lon="-5.84240754"><ele>2087.640137</ele><time>1989-12-31T00:00:00Z</time></trkpt>
<trkpt lat="31.11334688" lon="-5.84212549"><ele>2095.330811</ele><time>1989-12-31T00:00:00Z</time></trkpt>
<trkpt lat="31.11358409" lon="-5.84195903"><ele>2097.734131</ele><time>1989-12-31T00:00:00Z</time></trkpt>
<trkpt lat="31.11381216" lon="-5.84164739"><ele>2101.579346</ele><time>1989-12-31T00:00:00Z</time></trkpt>
<trkpt lat="31.11375424" lon="-5.84167605"><ele>2101.579346</ele><time>1989-12-31T00:00:00Z</time></trkpt>
<trkpt lat="31.11370152" lon="-5.84165434"><ele>2102.540527</ele><time>1989-12-31T00:00:00Z</time></trkpt>
<trkpt lat="31.11481723" lon="-5.84190815"><ele>2121.286133</ele><time>1989-12-31T00:00:00Z</time></trkpt>
<trkpt lat="31.11517078" lon="-5.84204377"><ele>2130.899658</ele><time>1989-12-31T00:00:00Z</time></trkpt>
<trkpt lat="31.11516299" lon="-5.84206807"><ele>2130.899658</ele><time>1989-12-31T00:00:00Z</time></trkpt>
<trkpt lat="31.11570479" lon="-5.84165510"><ele>2137.147949</ele><time>1989-12-31T00:00:00Z</time></trkpt>
<trkpt lat="31.11600319" lon="-5.84133457"><ele>2141.954834</ele><time>1989-12-31T00:00:00Z</time></trkpt>
<trkpt lat="31.11626353" lon="-5.84112645"><ele>2146.280762</ele><time>1989-12-31T00:00:00Z</time></trkpt>
<trkpt lat="31.11658229" lon="-5.84114313"><ele>2153.490479</ele><time>1989-12-31T00:00:00Z</time></trkpt>
<trkpt lat="31.11643871" lon="-5.84086946"><ele>2158.777832</ele><time>1989-12-31T00:00:00Z</time></trkpt>
<trkpt lat="31.11639194" lon="-5.84082546"><ele>2159.258545</ele><time>1989-12-31T00:00:00Z</time></trkpt>
<trkpt lat="31.11641080" lon="-5.84081138"><ele>2159.258545</ele><time>1989-12-31T00:00:00Z</time></trkpt>
<trkpt lat="31.11638197" lon="-5.84075974"><ele>2159.258545</ele><time>1989-12-31T00:00:00Z</time></trkpt>
<trkpt lat="31.11642153" lon="-5.84072563"><ele>2160.700439</ele><time>1989-12-31T00:00:00Z</time></trkpt>
<trkpt lat="31.11637367" lon="-5.84058087"><ele>2164.545654</ele><time>1989-12-31T00:00:00Z</time></trkpt>
<trkpt lat="31.11639865" lon="-5.84052522"><ele>2167.429443</ele><time>1989-12-31T00:00:00Z</time></trkpt>
<trkpt lat="31.11644508" lon="-5.84058833"><ele>2167.910156</ele><time>1989-12-31T00:00:00Z</time></trkpt>
<trkpt lat="31.11692713" lon="-5.84075689"><ele>2177.042969</ele><time>1989-12-31T00:00:00Z</time></trkpt>
<trkpt lat="31.11713567" lon="-5.84090894"><ele>2180.407471</ele><time>1989-12-31T00:00:00Z</time></trkpt>
<trkpt lat="31.11731110" lon="-5.84098237"><ele>2180.888184</ele><time>1989-12-31T00:00:00Z</time></trkpt>
<trkpt lat="31.11740808" lon="-5.84104741"><ele>2182.330078</ele><time>1989-12-31T00:00:00Z</time></trkpt>
<trkpt lat="31.11748368" lon="-5.84111908"><ele>2187.136475</ele><time>1989-12-31T00:00:00Z</time></trkpt>
<trkpt lat="31.11747103" lon="-5.84118906"><ele>2184.733398</ele><time>1989-12-31T00:00:00Z</time></trkpt>
<trkpt lat="31.11751663" lon="-5.84112964"><ele>2185.213867</ele><time>1989-12-31T00:00:00Z</time></trkpt>
<trkpt lat="31.11759181" lon="-5.84113123"><ele>2186.655762</ele><time>1989-12-31T00:00:00Z</time></trkpt>
<trkpt lat="31.11762006" lon="-5.84090852"><ele>2185.213867</ele><time>1989-12-31T00:00:00Z</time></trkpt>
<trkpt lat="31.11758620" lon="-5.84095881"><ele>2185.213867</ele><time>1989-12-31T00:00:00Z</time></trkpt>
<trkpt lat="31.11746709" lon="-5.84098597"><ele>2184.252686</ele><time>1989-12-31T00:00:00Z</time></trkpt>
<trkpt lat="31.11750296" lon="-5.84091799"><ele>2184.252686</ele><time>1989-12-31T00:00:00Z</time></trkpt>
<trkpt lat="31.11751822" lon="-5.84102377"><ele>2184.733398</ele><time>1989-12-31T00:00:00Z</time></trkpt>
<trkpt lat="31.11777311" lon="-5.84074239"><ele>2185.213867</ele><time>1989-12-31T00:00:00Z</time></trkpt>
<trkpt lat="31.11809565" lon="-5.84069520"><ele>2190.020752</ele><time>1989-12-31T00:00:00Z</time></trkpt>
<trkpt lat="31.11841776" lon="-5.84054098"><ele>2193.385254</ele><time>1989-12-31T00:00:00Z</time></trkpt>
<trkpt lat="31.11846680" lon="-5.84054994"><ele>2193.385254</ele><time>1989-12-31T00:00:00Z</time></trkpt>
<trkpt lat="31.11860535" lon="-5.84067760"><ele>2192.904541</ele><time>1989-12-31T00:00:00Z</time></trkpt>
<trkpt lat="31.11862731" lon="-5.84059487"><ele>2192.904541</ele><time>1989-12-31T00:00:00Z</time></trkpt>
<trkpt lat="31.11867484" lon="-5.84059328"><ele>2190.501221</ele><time>1989-12-31T00:00:00Z</time></trkpt>
<trkpt lat="31.11880610" lon="-5.84053360"><ele>2189.540039</ele><time>1989-12-31T00:00:00Z</time></trkpt>
<trkpt lat="31.11895136" lon="-5.84043503"><ele>2190.501221</ele><time>1989-12-31T00:00:00Z</time></trkpt>
<trkpt lat="31.11965586" lon="-5.84033461"><ele>2196.269287</ele><time>1989-12-31T00:00:00Z</time></trkpt>
<trkpt lat="31.12018785" lon="-5.84013018"><ele>2195.788574</ele><time>1989-12-31T00:00:00Z</time></trkpt>
<trkpt lat="31.12032054" lon="-5.83997838"><ele>2195.788574</ele><time>1989-12-31T00:00:00Z</time></trkpt>
<trkpt lat="31.12034778" lon="-5.83999104"><ele>2194.827148</ele><time>1989-12-31T00:00:00Z</time></trkpt>
<trkpt lat="31.12040872" lon="-5.83993614"><ele>2193.385254</ele><time>1989-12-31T00:00:00Z</time></trkpt>
<trkpt lat="31.12044887" lon="-5.83984268"><ele>2192.904541</ele><time>1989-12-31T00:00:00Z</time></trkpt>
<trkpt lat="31.12050461" lon="-5.83956792"><ele>2189.540039</ele><time>1989-12-31T00:00:00Z</time></trkpt>
<trkpt lat="31.12068599" lon="-5.83921161"><ele>2186.655762</ele><time>1989-12-31T00:00:00Z</time></trkpt>
<trkpt lat="31.12065548" lon="-5.83920297"><ele>2188.098145</ele><time>1989-12-31T00:00:00Z</time></trkpt>
<trkpt lat="31.12083980" lon="-5.83892603"><ele>2184.733398</ele><time>1989-12-31T00:00:00Z</time></trkpt>
<trkpt lat="31.12094189" lon="-5.83869243"><ele>2184.252686</ele><time>1989-12-31T00:00:00Z</time></trkpt>
<trkpt lat="31.12087551" lon="-5.83844449"><ele>2184.733398</ele><time>1989-12-31T00:00:00Z</time></trkpt>
<trkpt lat="31.12094122" lon="-5.83824098"><ele>2185.213867</ele><time>1989-12-31T00:00:00Z</time></trkpt>
<trkpt lat="31.12095186" lon="-5.83795533"><ele>2187.617188</ele><time>1989-12-31T00:00:00Z</time></trkpt>
<trkpt lat="31.12100442" lon="-5.83774595"><ele>2188.578857</ele><time>1989-12-31T00:00:00Z</time></trkpt>
<trkpt lat="31.12101582" lon="-5.83778132"><ele>2189.540039</ele><time>1989-12-31T00:00:00Z</time></trkpt>
<trkpt lat="31.12123207" lon="-5.83741754"><ele>2190.020752</ele><time>1989-12-31T00:00:00Z</time></trkpt>
<trkpt lat="31.12098573" lon="-5.83779817"><ele>2190.020752</ele><time>1989-12-31T00:00:00Z</time></trkpt>
<trkpt lat="31.12101221" lon="-5.83778450"><ele>2189.059326</ele><time>1989-12-31T00:00:00Z</time></trkpt>
<trkpt lat="31.12101297" lon="-5.83778492"><ele>2190.501221</ele><time>1989-12-31T00:00:00Z</time></trkpt>
<trkpt lat="31.12123492" lon="-5.83712904"><ele>2187.617188</ele><time>1989-12-31T00:00:00Z</time></trkpt>
<trkpt lat="31.12121992" lon="-5.83717698"><ele>2186.655762</ele><time>1989-12-31T00:00:00Z</time></trkpt>
<trkpt lat="31.12119025" lon="-5.83727438"><ele>2190.020752</ele><time>1989-12-31T00:00:00Z</time></trkpt>
<trkpt lat="31.12118891" lon="-5.83727656"><ele>2177.042969</ele><time>1989-12-31T00:00:00Z</time></trkpt>
<trkpt lat="31.12118790" lon="-5.83727782"><ele>2188.098145</ele><time>1989-12-31T00:00:00Z</time></trkpt>
<trkpt lat="31.12101481" lon="-5.83779448"><ele>2179.926758</ele><time>1989-12-31T00:00:00Z</time></trkpt>
<trkpt lat="31.12123576" lon="-5.83713960"><ele>2190.501221</ele><time>1989-12-31T00:00:00Z</time></trkpt>
<trkpt lat="31.12157070" lon="-5.83810670"><ele>2186.655762</ele><time>1989-12-31T00:00:00Z</time></trkpt>
<trkpt lat="31.12147858" lon="-5.83804987"><ele>2187.617188</ele><time>1989-12-31T00:00:00Z</time></trkpt>
<trkpt lat="31.12147179" lon="-5.83804836"><ele>2184.252686</ele><time>1989-12-31T00:00:00Z</time></trkpt>
<trkpt lat="31.12146853" lon="-5.83804761"><ele>2187.617188</ele><time>1989-12-31T00:00:00Z</time></trkpt>
<trkpt lat="31.12100517" lon="-5.83782583"><ele>2189.059326</ele><time>1989-12-31T00:00:00Z</time></trkpt>
</trkseg></trk></gpx>